Regional Weather Roundup
Issued by NWS

Home | Current Version | Previous Version | Graphics & Text | Print | Product List | Glossary On
Versions: 1 2 3 4 5 6 7 8 9 10 11 12 13 14 15 16 17 18 19 20 21 22 23 24 25 26 27 28 29 30 31 32 33 34 35 36 37 38 39 40 41 42 43 44 45 46 47 48 49 50
000
ASUS43 KFSD 261110
RWRSD

WEATHER ROUNDUP FOR SOUTH DAKOTA
NATIONAL WEATHER SERVICE SIOUX FALLS SD
600 AM CDT SUN MAR 26 2017

NOTE: "FAIR" INDICATES FEW OR NO CLOUDS BELOW 12,000 FEET WITH NO
SIGNIFICANT WEATHER AND/OR OBSTRUCTIONS TO VISIBILITY.


SDZ001>005-009-010-012>017-261200-
NORTHWEST AND NORTH CENTRAL SOUTH DAKOTA

CITY           SKY/WX    TMP DP  RH WIND       PRES   REMARKS
BUFFALO          N/A     45  36  70 N17       29.82S
FAITH            N/A     37  37 100 MISG      29.87S
MOBRIDGE       CLOUDY    39  36  89 E6        29.89S FOG
$$

SDZ012>016-024>037-041>051-057-063-072>074-261200-
SOUTHWEST AND SOUTH CENTRAL SOUTH DAKOTA

CITY           SKY/WX    TMP DP  RH WIND       PRES   REMARKS
RAPID CTY ARPT LGT RAIN  42  36  79 N18       29.83F
PIERRE         CLOUDY    40  37  89 SE6       29.88S
CUSTER         CLOUDY    40  35  83 CALM      29.83R
ELLSWORTH AFB  CLOUDY    42  36  77 N15       29.84
PHILIP         CLOUDY    39  38  96 NE9       29.85R
PINE RIDGE     CLOUDY    46  32  58 CALM      29.80S
SPEARFISH      CLOUDY    43  34  70 W9G16     29.89R
WINNER         CLOUDY    40  38  93 SE5       29.87F
$$

SDZ004>011-016>023-039-040-261200-
NORTHEAST SOUTH DAKOTA

CITY           SKY/WX    TMP DP  RH WIND       PRES   REMARKS
ABERDEEN       CLOUDY    36  33  89 N3        29.95S FOG
WATERTOWN      FOG       34  34 100 N3        29.93R VSB 1/2
BROOKINGS      CLOUDY    35  35 100 NE3       29.91S FOG
SISSETON         N/A     35  35 100 CALM      29.96R
$$

SDZ017-020-022-023-036>040-048>070-261200-
SOUTHEAST SOUTH DAKOTA

CITY           SKY/WX    TMP DP  RH WIND       PRES   REMARKS
SIOUX FALLS    CLOUDY    38  37  97 N3        29.92R FOG
HURON          CLOUDY    38  38 100 E3        29.93R
CHAMBERLAIN    CLOUDY    40  40  99 CALM      29.89F
MITCHELL       CLOUDY    38  38 100 E5        29.93S FOG
YANKTON        CLOUDY    37  36  93 NE5       29.91S
$$

ABBREVIATIONS USED IN REMARKS
   TC - TEMPERATURE IN CELSIUS
  WCI - WIND CHILL INDEX
   HX - HEAT INDEX
  VSB - VISIBILITY




USA.gov is the U.S. government's official web portal to all federal, state and local government web resources and services.